Flag for U.S.A. Weather past 2 weeks in Sandpoint, Idaho, U.S.A.

Now
34 °F

Clear.


Feels Like: 34 °F
Forecast: 35 / 65 °F
Wind: No wind

Location: Sandpoint Airport

Current Time: May 3, 2015 at 2:57:20 AM

Latest Report: May 3, 2015 at 2:35 AM


Visibility: 10 mi

Pressure: 29.98 "Hg

Humidity: 81%

Dew point: 28 °F

Location of SandpointLocation

Historic Weather in Sandpoint — Graph

°F

Sandpoint temperature yesterday

Maximum temperature yesterday: 64 °F (at 2:55 PM)
Minimum temperature yesterday: 36 °F (at 5:55 AM)
Average temperature yesterday: 53 °F

Past Weeks' High & Low Weather Summary

 TemperatureHumidityPressure
High75 °F (Apr 28, 3:55 PM)100% (Apr 19, 6:35 AM)30.37 "Hg (Apr 19, 6:35 AM)
Low30 °F (Apr 27, 5:55 AM)16% (Apr 18, 6:35 PM)29.70 "Hg (Apr 24, 2:15 AM)
Average49 °F62%29.98 "Hg
* Reported Apr 18 1:15 AM — May 3 1:55 AM, Sandpoint, Weather by CustomWeather, © 2015

Note: Actual official high and low records may vary slightly from our data, if they occured in-between our weather recording intervals... More about our weather records

Advertising

Sandpoint weather history for previous 24 hours

 ConditionsComfort  
Time TempWeatherWind HumidityBarometerVisibility
1:55 AM
Sun, May 3
36 °FClear.No wind75%29.98 "Hg10 mi
1:35 AM36 °FClear.No wind81%29.98 "Hg10 mi
1:15 AM36 °FClear.No wind81%29.98 "Hg10 mi
12:55 AM45 °FClear.3 mph49%29.97 "Hg10 mi
12:35 AM37 °FClear.No wind70%29.97 "Hg10 mi
12:15 AM43 °FClear.No wind53%29.96 "Hg10 mi
11:55 PM
Sat, May 2
41 °FClear.3 mph61%29.96 "Hg10 mi
11:35 PM43 °FClear.3 mph53%29.95 "Hg10 mi
11:15 PM45 °FClear.5 mph49%29.95 "Hg10 mi
10:55 PM48 °FClear.10 mph34%29.94 "Hg10 mi
10:35 PM46 °FClear.9 mph40%29.94 "Hg10 mi
10:15 PM48 °FClear.8 mph37%29.94 "Hg10 mi
9:55 PM45 °FClear.3 mph49%29.93 "Hg10 mi
9:35 PM46 °FClear.No wind50%29.92 "Hg10 mi
9:15 PM45 °FClear.3 mph57%29.92 "Hg10 mi
8:55 PM46 °FSunny.No wind53%29.91 "Hg10 mi
8:15 PM52 °FSunny.3 mph41%29.90 "Hg10 mi
7:55 PM54 °FSunny.3 mph38%29.89 "Hg10 mi
7:15 PM61 °FSunny.7 mph22%29.88 "Hg10 mi
6:55 PM63 °FSunny.9 mph20%29.88 "Hg10 mi
6:15 PM63 °FSunny.9 mph22%29.88 "Hg10 mi
5:55 PM64 °FSunny.9 mph21%29.88 "Hg10 mi
5:35 PM64 °FSunny.9 mph21%29.88 "Hg10 mi
5:15 PM64 °FSunny.8 mph21%29.88 "Hg10 mi
4:55 PM64 °FSunny.10 mph22%29.88 "Hg10 mi
4:35 PM64 °FSunny.9 mph24%29.88 "Hg10 mi
4:15 PM64 °FSunny.7 mph24%29.88 "Hg10 mi
3:55 PM64 °FSunny.7 mph21%29.88 "Hg10 mi
3:35 PM64 °FSunny.7 mph24%29.89 "Hg10 mi
3:15 PM64 °FSunny.13 mph24%29.89 "Hg10 mi
2:55 PM64 °FSunny.12 mph24%29.90 "Hg10 mi
1:55 PM63 °FSunny.12 mph22%29.90 "Hg10 mi
1:35 PM63 °FSunny.10 mph24%29.90 "Hg10 mi
1:15 PM63 °FSunny.8 mph24%29.90 "Hg10 mi
12:55 PM63 °FSunny.8 mph24%29.91 "Hg10 mi
12:35 PM63 °FSunny.7 mph27%29.91 "Hg10 mi
12:15 PM61 °FSunny.9 mph27%29.91 "Hg10 mi
11:55 AM61 °FSunny.13 mph29%29.92 "Hg10 mi
11:15 AM59 °FSunny.12 mph29%29.92 "Hg10 mi
10:55 AM59 °FSunny.9 mph25%29.91 "Hg10 mi
10:35 AM59 °FSunny.8 mph29%29.91 "Hg10 mi
10:15 AM59 °FSunny.No wind31%29.90 "Hg10 mi
9:55 AM57 °FSunny.No wind31%29.90 "Hg10 mi
9:35 AM55 °FSunny.3 mph36%29.90 "Hg10 mi
9:15 AM55 °FSunny.6 mph41%29.90 "Hg10 mi
8:55 AM55 °FSunny.6 mph38%29.90 "Hg10 mi
8:35 AM54 °FSunny.No wind41%29.90 "Hg10 mi
8:15 AM54 °FSunny.3 mph44%29.90 "Hg10 mi
7:55 AM52 °FSunny.No wind47%29.89 "Hg10 mi
7:35 AM50 °FSunny.No wind50%29.89 "Hg10 mi
7:15 AM46 °FSunny.No wind53%29.88 "Hg10 mi
6:55 AM43 °FSunny.No wind61%29.87 "Hg10 mi
6:35 AM41 °FSunny.No wind66%29.86 "Hg10 mi
6:15 AM41 °FClear.No wind61%29.85 "Hg10 mi
5:55 AM36 °FClear.3 mph81%29.84 "Hg10 mi
5:35 AM37 °FClear.No wind75%29.84 "Hg10 mi
5:15 AM41 °FClear.5 mph66%29.83 "Hg10 mi
4:55 AM41 °FClear.3 mph70%29.82 "Hg10 mi
4:35 AM41 °FClear.3 mph70%29.82 "Hg10 mi
4:15 AM43 °FClear.No wind66%29.81 "Hg10 mi
3:55 AM41 °FClear.No wind76%29.80 "Hg10 mi
3:35 AM43 °FClear.No wind71%29.79 "Hg10 mi
3:15 AM43 °FClear.No wind76%29.78 "Hg10 mi
2:55 AM45 °FClear.No wind71%29.78 "Hg10 mi
2:35 AM46 °FClear.No wind66%29.78 "Hg10 mi
2:15 AM45 °FClear.No wind71%29.76 "Hg10 mi
Weather by CustomWeather, © 2015

See weather overviewHow to use our weather pages